{"data":{"norad_id":54654,"epoch":"2026-09-19T16:18:21.098304Z","epoch_age_seconds":92928,"freshness":"FRESH","line1":"1 54654U 22166N   26262.67941086  .00000052  00000+0  94132-4 0  9999","line2":"2 54654  87.9288 225.1688 0001785  74.0736 286.0595 13.21826639184164","mean_motion":13.21826639,"eccentricity":0.0001785,"inclination_deg":87.9288,"raan_deg":225.1688,"arg_perigee_deg":74.0736,"mean_anomaly_deg":286.0595,"bstar":9.4132e-5,"rev_number":18416,"period_min":108.94015580511,"perigee_km":1176.4022072495,"apogee_km":1179.0996592416,"semimajor_km":7555.8879332455,"source":"CELESTRAK","updated_at":"2026-09-20T09:00:44.743423Z"}}